| time (UTC) | temp F | wind direction | speed MPH | gust MPH | rain 1hr in | rain 24hr in | rain mn in | humidity % | barometer mb |
| 20260902194358 | 65 | 61 | 0.0 | 0.0 | 0.00 | 0.22 | 0.16 | 96 | 1019.9 |
| 20260902192242 | 64 | 61 | 0.0 | 0.0 | 0.06 | 0.22 | 0.16 | 95 | 1020.1 |
| 20260902191222 | 63 | 61 | 0.0 | 0.0 | 0.19 | 0.21 | 0.15 | 94 | 1020.3 |
| 20260902190204 | 64 | 60 | 0.0 | 0.0 | 0.32 | 0.17 | 0.10 | 93 | 1020.4 |
| 20260902185131 | 65 | 118 | 0.0 | 0.0 | 0.19 | 0.12 | 0.06 | 89 | 1021.0 |
| 20260902184108 | 66 | 133 | 0.0 | 0.0 | 0.00 | 0.07 | 0.01 | 86 | 1021.8 |
| 20260902183123 | 67 | 141 | 0.0 | 0.0 | 0.00 | 0.07 | 0.01 | 85 | 1020.9 |
| 20260902182122 | 67 | 137 | 0.0 | 0.0 | 0.00 | 0.08 | 0.01 | 85 | 1020.4 |
| 20260902181141 | 67 | 117 | 0.0 | 0.0 | 0.00 | 0.08 | 0.01 | 85 | 1020.4 |
| 20260902180134 | 67 | 138 | 0.0 | 0.0 | 0.00 | 0.08 | 0.01 | 84 | 1020.7 |
| 20260902175145 | 67 | 136 | 0.0 | 0.0 | 0.00 | 0.08 | 0.01 | 85 | 1020.8 |
| 20260902174155 | 67 | 105 | 0.0 | 0.0 | 0.00 | 0.08 | 0.01 | 86 | 1020.9 |
| 20260902173125 | 67 | 103 | 0.0 | 0.0 | 0.00 | 0.08 | 0.01 | 88 | 1020.8 |
| 20260902172148 | 67 | 98 | 0.0 | 0.0 | 0.00 | 0.08 | 0.01 | 88 | 1020.8 |
| 20260902171134 | 67 | 98 | 0.0 | 0.0 | 0.00 | 0.08 | 0.01 | 88 | 1021.0 |
| 20260902170117 | 67 | 98 | 0.0 | 0.0 | 0.00 | 0.08 | 0.01 | 87 | 1021.0 |
| 20260902165051 | 67 | 98 | 0.0 | 0.0 | 0.00 | 0.08 | 0.01 | 88 | 1021.1 |
| 20260902164017 | 66 | 87 | 0.0 | 0.0 | 0.00 | 0.08 | 0.01 | 88 | 1020.9 |
| 20260902163004 | 66 | 91 | 0.0 | 0.0 | 0.00 | 0.08 | 0.01 | 88 | 1020.7 |
| 20260902162014 | 66 | 111 | 0.0 | 0.0 | 0.00 | 0.08 | 0.01 | 87 | 1021.0 |
| 20260902160952 | 66 | 144 | 0.0 | 0.0 | 0.00 | 0.08 | 0.01 | 87 | 1021.0 |
| 20260902154912 | 66 | 136 | 0.0 | 0.0 | 0.00 | 0.08 | 0.01 | 88 | 1021.0 |
| 20260902153908 | 66 | 130 | 0.0 | 0.0 | 0.00 | 0.08 | 0.01 | 87 | 1021.0 |
| 20260902152902 | 66 | 139 | 0.0 | 0.0 | 0.00 | 0.08 | 0.01 | 86 | 1021.1 |
| 20260902151831 | 66 | 60 | 0.0 | 2.0 | 0.00 | 0.08 | 0.01 | 87 | 1020.9 |
| 20260902150847 | 66 | 41 | 0.0 | 3.0 | 0.00 | 0.08 | 0.01 | 87 | 1021.0 |
| 20260902145845 | 65 | 141 | 0.0 | 0.0 | 0.00 | 0.08 | 0.01 | 89 | 1021.0 |
| 20260902144902 | 65 | 69 | 0.0 | 0.0 | 0.00 | 0.08 | 0.01 | 90 | 1021.1 |
| 20260902143844 | 64 | 63 | 0.0 | 1.0 | 0.00 | 0.08 | 0.01 | 92 | 1021.1 |
| 20260902142814 | 64 | 82 | 0.0 | 1.0 | 0.00 | 0.09 | 0.01 | 92 | 1021.1 |
| 20260902140652 | 63 | 83 | 0.0 | 0.0 | 0.00 | 0.09 | 0.01 | 94 | 1021.5 |
| 20260902135629 | 63 | 76 | 0.0 | 0.0 | 0.00 | 0.09 | 0.01 | 94 | 1021.7 |
| 20260902133434 | 62 | 64 | 0.0 | 0.0 | 0.00 | 0.12 | 0.00 | 96 | 1021.1 |
| 20260902132443 | 62 | 64 | 0.0 | 0.0 | 0.00 | 0.13 | 0.00 | 96 | 1021.1 |
| 20260902131457 | 62 | 64 | 0.0 | 0.0 | 0.00 | 0.16 | 0.00 | 96 | 1020.8 |
| 20260902130453 | 62 | 78 | 0.0 | 0.0 | 0.00 | 0.26 | 0.00 | 96 | 1020.9 |
| 20260902125433 | 62 | 71 | 0.0 | 0.0 | 0.00 | 0.33 | 0.00 | 97 | 1021.1 |
| 20260902124424 | 61 | 75 | 0.0 | 0.0 | 0.00 | 0.33 | 0.00 | 97 | 1020.8 |
| 20260902123448 | 61 | 75 | 0.0 | 0.0 | 0.00 | 0.33 | 0.00 | 97 | 1020.8 |
| 20260902122423 | 61 | 53 | 0.0 | 0.0 | 0.00 | 0.33 | 0.00 | 97 | 1020.7 |
| 20260902121402 | 61 | 37 | 0.0 | 0.0 | 0.00 | 0.33 | 0.00 | 97 | 1020.8 |
| 20260902115251 | 61 | 81 | 0.0 | 0.0 | 0.00 | 0.33 | 0.00 | 98 | 1020.7 |
| 20260902112035 | 60 | 117 | 0.0 | 0.0 | 0.00 | 0.33 | 0.00 | 98 | 1020.8 |
| 20260902111053 | 60 | 219 | 0.0 | 0.0 | 0.00 | 0.33 | 0.00 | 98 | 1020.8 |
| 20260902110117 | 60 | 219 | 0.0 | 0.0 | 0.00 | 0.33 | 0.00 | 98 | 1020.7 |
| 20260902105049 | 60 | 219 | 0.0 | 0.0 | 0.00 | 0.33 | 0.00 | 98 | 1020.7 |
| 20260902104101 | 60 | 219 | 0.0 | 0.0 | 0.00 | 0.33 | 0.00 | 98 | 1020.6 |
| 20260902103033 | 60 | 219 | 0.0 | 0.0 | 0.00 | 0.33 | 0.00 | 98 | 1020.7 |
| 20260902102023 | 60 | 219 | 0.0 | 0.0 | 0.00 | 0.33 | 0.00 | 98 | 1020.6 |
| 20260902101014 | 60 | 219 | 0.0 | 0.0 | 0.00 | 0.33 | 0.00 | 98 | 1020.5 |
| 20260902094910 | 60 | 68 | 0.0 | 0.0 | 0.00 | 0.33 | 0.00 | 98 | 1020.2 |
| 20260902093902 | 61 | 68 | 0.0 | 0.0 | 0.00 | 0.33 | 0.00 | 98 | 1020.0 |
| 20260902092841 | 61 | 68 | 0.0 | 0.0 | 0.00 | 0.33 | 0.00 | 98 | 1019.9 |
| 20260902090702 | 61 | 101 | 0.0 | 0.0 | 0.00 | 0.33 | 0.00 | 98 | 1019.9 |
| 20260902085646 | 61 | 101 | 0.0 | 0.0 | 0.00 | 0.33 | 0.00 | 98 | 1019.8 |
| 20260902084615 | 61 | 101 | 0.0 | 0.0 | 0.00 | 0.33 | 0.00 | 98 | 1019.8 |
| 20260902083554 | 61 | 132 | 0.0 | 0.0 | 0.00 | 0.33 | 0.00 | 98 | 1019.5 |
| 20260902082527 | 61 | 89 | 0.0 | 0.0 | 0.00 | 0.35 | 0.00 | 98 | 1019.4 |
| 20260902075231 | 61 | 73 | 0.0 | 0.0 | 0.00 | 0.38 | 0.00 | 98 | 1019.2 |
| 20260902074253 | 61 | 73 | 0.0 | 0.0 | 0.00 | 0.38 | 0.00 | 98 | 1019.1 |
| 20260902073235 | 61 | 73 | 0.0 | 0.0 | 0.00 | 0.38 | 0.00 | 98 | 1019.2 |
| 20260902072218 | 61 | 73 | 0.0 | 0.0 | 0.00 | 0.38 | 0.00 | 98 | 1019.1 |
| 20260902070058 | 61 | 77 | 0.0 | 0.0 | 0.00 | 0.38 | 0.00 | 98 | 1019.0 |
| 20260902065103 | 61 | 82 | 0.0 | 0.0 | 0.00 | 0.38 | 0.00 | 98 | 1019.1 |
| 20260902064037 | 61 | 87 | 0.0 | 0.0 | 0.00 | 0.41 | 0.00 | 98 | 1019.2 |
| 20260902063012 | 61 | 79 | 0.0 | 0.0 | 0.00 | 0.42 | 0.00 | 98 | 1019.1 |
| 20260902062026 | 61 | 78 | 0.0 | 0.0 | 0.00 | 0.47 | 0.00 | 98 | 1019.2 |
| 20260902061031 | 61 | 78 | 0.0 | 0.0 | 0.00 | 0.53 | 0.00 | 98 | 1019.2 |
| 20260902060003 | 61 | 78 | 0.0 | 0.0 | 0.00 | 0.61 | 0.00 | 98 | 1019.4 |
| 20260902054952 | 61 | 78 | 0.0 | 0.0 | 0.00 | 0.70 | 0.00 | 98 | 1019.2 |
| 20260902053924 | 61 | 78 | 0.0 | 0.0 | 0.00 | 0.71 | 0.00 | 98 | 1019.3 |
| 20260902052851 | 61 | 78 | 0.0 | 0.0 | 0.00 | 0.73 | 0.00 | 98 | 1019.2 |
| 20260902051837 | 61 | 78 | 0.0 | 0.0 | 0.00 | 0.77 | 0.00 | 98 | 1019.2 |
| 20260902050810 | 61 | 75 | 0.0 | 0.0 | 0.00 | 0.77 | 0.00 | 97 | 1019.2 |
| 20260902045738 | 61 | 110 | 0.0 | 0.0 | 0.00 | 0.77 | 0.00 | 98 | 1019.2 |
| 20260902044718 | 61 | 110 | 0.0 | 0.0 | 0.00 | 0.77 | 0.00 | 98 | 1019.1 |
| 20260902043731 | 61 | 75 | 0.0 | 0.0 | 0.00 | 0.78 | 0.00 | 97 | 1019.1 |
| 20260902042722 | 61 | 74 | 0.0 | 0.0 | 0.00 | 0.78 | 0.00 | 97 | 1019.0 |
| 20260902041746 | 61 | 74 | 0.0 | 0.0 | 0.00 | 0.78 | 0.00 | 97 | 1019.0 |
| 20260902040730 | 61 | 84 | 0.0 | 0.0 | 0.00 | 0.78 | 0.00 | 97 | 1018.9 |
| 20260902035747 | 61 | 84 | 0.0 | 0.0 | 0.00 | 0.78 | 0.77 | 97 | 1018.8 |
| 20260902034723 | 61 | 84 | 0.0 | 0.0 | 0.00 | 0.78 | 0.77 | 97 | 1018.6 |
| 20260902033651 | 62 | 84 | 0.0 | 0.0 | 0.00 | 0.78 | 0.77 | 97 | 1018.4 |
| 20260902032715 | 62 | 110 | 0.0 | 0.0 | 0.00 | 0.78 | 0.77 | 97 | 1018.3 |
| 20260902031716 | 62 | 68 | 0.0 | 0.0 | 0.00 | 0.78 | 0.77 | 97 | 1018.4 |
| 20260902030730 | 61 | 68 | 0.0 | 0.0 | 0.00 | 0.78 | 0.77 | 97 | 1018.4 |
| 20260902025752 | 62 | 64 | 0.0 | 0.0 | 0.00 | 0.78 | 0.77 | 97 | 1018.3 |
| 20260902023604 | 62 | 65 | 0.0 | 0.0 | 0.00 | 0.78 | 0.77 | 97 | 1018.0 |
| 20260902021450 | 62 | 68 | 0.0 | 0.0 | 0.00 | 0.78 | 0.77 | 97 | 1017.7 |
| 20260902015338 | 62 | 39 | 0.0 | 0.0 | 0.00 | 0.78 | 0.77 | 97 | 1017.8 |
| 20260902014401 | 62 | 63 | 0.0 | 2.0 | 0.00 | 0.78 | 0.77 | 96 | 1017.7 |
| 20260902013338 | 62 | 82 | 0.0 | 0.0 | 0.00 | 0.78 | 0.77 | 96 | 1017.6 |
| 20260902012343 | 62 | 123 | 0.0 | 0.0 | 0.00 | 0.78 | 0.77 | 96 | 1017.4 |
| 20260902010257 | 63 | 88 | 0.0 | 0.0 | 0.00 | 0.77 | 0.77 | 96 | 1017.1 |
| 20260902005246 | 63 | 82 | 0.0 | 1.0 | 0.06 | 0.77 | 0.77 | 96 | 1017.3 |
| 20260902004220 | 63 | 75 | 0.0 | 1.0 | 0.38 | 0.76 | 0.76 | 96 | 1017.0 |
| 20260902003243 | 63 | 81 | 0.0 | 0.0 | 0.00 | 0.73 | 0.73 | 95 | 1017.0 |
| 20260902002250 | 64 | 83 | 0.0 | 0.0 | 0.00 | 0.73 | 0.73 | 95 | 1016.8 |
| 20260901235026 | 65 | 56 | 0.0 | 3.0 | 0.00 | 0.73 | 0.73 | 95 | 1016.5 |
| 20260901234029 | 65 | 78 | 0.0 | 0.0 | 0.00 | 0.73 | 0.73 | 95 | 1016.4 |
| 20260901233026 | 66 | 238 | 0.0 | 2.0 | 0.00 | 0.73 | 0.73 | 94 | 1016.3 |
| 20260901225716 | 69 | 76 | 0.0 | 2.0 | 0.00 | 0.73 | 0.73 | 93 | 1016.0 |
| 20260901224725 | 70 | 319 | 0.0 | 2.0 | 0.00 | 0.73 | 0.73 | 93 | 1015.7 |
| 20260901223654 | 72 | 84 | 0.0 | 2.0 | 0.00 | 0.73 | 0.73 | 92 | 1015.3 |
| 20260901222653 | 74 | 67 | 0.0 | 0.0 | 0.00 | 0.72 | 0.72 | 94 | 1015.0 |
| 20260901221707 | 74 | 133 | 0.0 | 0.0 | 0.00 | 0.72 | 0.72 | 93 | 1014.9 |
| 20260901214733 | 75 | 84 | 0.0 | 0.0 | 0.00 | 0.73 | 0.72 | 92 | 1014.7 |
| 20260901213758 | 75 | 134 | 0.0 | 0.0 | 0.00 | 0.73 | 0.72 | 91 | 1014.6 |
| 20260901212753 | 76 | 129 | 0.0 | 0.0 | 0.00 | 0.73 | 0.72 | 91 | 1014.6 |
| 20260901210715 | 76 | 241 | 0.0 | 0.0 | 0.00 | 0.73 | 0.72 | 91 | 1014.4 |
| 20260901205709 | 76 | 237 | 0.0 | 0.0 | 0.00 | 0.73 | 0.72 | 91 | 1014.6 |
| 20260901204716 | 77 | 236 | 0.0 | 0.0 | 0.00 | 0.73 | 0.72 | 89 | 1014.4 |
| 20260901203707 | 77 | 293 | 0.0 | 0.0 | 0.00 | 0.73 | 0.72 | 88 | 1014.4 |
| 20260901202718 | 78 | 292 | 0.0 | 0.0 | 0.00 | 0.73 | 0.72 | 87 | 1014.4 |
| 20260901201700 | 78 | 293 | 0.0 | 0.0 | 0.00 | 0.73 | 0.72 | 86 | 1014.5 |
| 20260901200713 | 79 | 292 | 0.0 | 0.0 | 0.00 | 0.73 | 0.72 | 85 | 1014.4 |